Showing default

YAOGAN-30 AC, 48863

Orbit data source: Space-Track

YAOGAN-30 AC, 48863 is a payload satellite owned by PLA SSF (CN) in LEO that was launched on Fri, 18 Jun 2021 UTC via a CHANG ZHENG 2C launch vehicle from the Xichang Space Center, China (XSC). Payload-class satellites include a variety of spacecraft equipped with specific instruments for various scientific and technological missions. These include communications satellites like Starlink; space stations such as the ISS; scientific satellites like the Hubble; Earth observation satellites from companies like Planet Labs, Umbra, and HawkEye 360; GPS; miniature CubeSats for education and research; and military/defense satellites.

Loading next visibility...
Identifier
48863, 2021-055D
Orbit
LEO
Country
Flag of CNCN / PRC
Related business
Manufacturer
SECM
Mission
Operational Defense Sigint
Bus & Motor
Unknown
Mass
~500 kg wet, ~500 kg dry
Launch date (UTC)
2021-06-18 (5 years ago)
Launch vehicle
CHANG ZHENG 2C
Launch site
Xichang Space Center, China (XSC)
Object type
Payload
Rocket body
Debris
Shape & HBR
Box + 2 Pan, 0.5 m
Radar Cross Section
0.446 m², Large (>1 m²)

Expand to show TLE details & history
Last TLE update: 1 day ago

TLE from 1 day ago
0 YAOGAN-30 AC
1 48863U 21055D   26172.33343507  .00001773  00000-0  13234-3 0  9992
2 48863  34.9946 126.2611 0003689 211.1965 148.8524 15.02687668273515
Epoch: 2026-06-21T08:00Z
TLE epoch observation values (Epoch: 2026-06-21T08:00:08.790Z)
Latitude
-0.00003°
Longitude
96.68922°
Altitude
559.719 km
Speed
7.583 km/s
True Right ascension
08h 25m 02s
True Declination
0° 00' 00"
Sunlit
Object was in daylight at epoch
Visualization orbit readout
Latitude
Unknown
Longitude
Unknown
Altitude
Unknown
Speed
Unknown
Apparent Right ascension
Unknown
Apparent Declination
Unknown
Sunlit
N/A
Visualization observer readout
Local Sidereal Time
00:51:30
Azimuth
Unknown
Elevation
Unknown
Doppler factor
Unknown
Orbital elements
Apogee altitude
564.395 km
Perigee altitude
559.275 km
Semi-major axis
6,939.972 km
Eccentricity
0.00037
Inclination
34.9946°
RAAN
126.2611°
Arg. of periapsis
211.1965°
True anomaly
148.87426°
Mean anomaly
148.8524°
Eccentric anomaly
148.86333°
Mean motion
3.75411 °/min
Orbital period
95.89 mins
BSTAR
0.00013234
Loading maneuver chart data...
Computing Atmospheric mass density...
Loading historical data...
Loading historical data...
Loading historical data...
Loading historical data...
Loading historical data...
Loading historical data...
Loading historical data...
Other satellites on launch #55 in the year 2021 (2021-06-18 UTC)

Documentation

Showing up to 5 results
|